Temperature
17 17 18 17 17 17 17 17 17 17 17 17 17 17 17 17 17 17 17 17 17 16 16 16 16 16 16 16 16 15 15 15 15 15 15 14 14 14 14 13 13 13 13
17 17 17 17 17 17 17 17 17 17 17 17 17 17 17 17 17 17 17 17 16 16 16 16 16 16 16 16 15 15 15 15 15 15 14 14 14 14 13 13 13 13 13
17 17 17 17 17 17 17 17 17 17 17 17 17 17 17 17 17 17 17 16 16 16 16 16 16 16 16 15 15 15 15 15 15 15 14 13 13 13 13 13 13 13 13
16 16 17 17 16 16 17 16 17 17 17 17 17 17 17 17 16 16 16 16 16 16 16 16 16 16 15 15 15 15 15 15 15 14 13 13 13 13 13 13 13 13 13
16 16 16 17 16 16 16 16 16 16 16 16 16 17 16 16 16 16 16 16 16 16 15 15 15 15 15 15 15 15 15 15 14 14 13 13 13 13 13 13 13 12 12
15 16 16 16 16 16 16 16 16 16 16 16 16 16 16 16 16 16 16 16 16 15 15 15 15 15 15 15 15 14 14 14 14 13 13 13 13 13 13 12 12 12 12
15 15 16 16 16 16 16 16 16 16 16 16 16 16 16 16 16 16 16 15 15 15 15 15 15 15 15 15 14 14 14 14 13 13 13 13 12 13 12 12 12 12 12
14 15 15 15 16 16 16 16 16 16 16 16 16 16 16 16 16 16 15 15 15 15 15 15 15 15 14 14 14 14 14 14 13 13 13 12 12 12 12 12 12 12 11
14 14 14 15 15 15 15 16 16 15 15 15 15 15 15 15 15 15 15 15 15 15 15 15 14 14 14 14 14 14 14 14 13 13 12 12 12 12 12 12 11 11 11
14 14 14 14 14 15 15 15 15 15 15 15 15 15 15 15 15 15 15 15 14 14 14 14 14 14 14 14 14 13 13 13 13 12 12 12 12 12 12 11 11 11 11
13 13 13 14 14 14 14 14 14 14 15 15 14 14 14 14 14 14 14 14 14 14 14 14 14 14 14 13 13 13 13 13 12 12 12 12 12 12 12 11 11 11 11
12 13 13 13 13 14 14 14 14 14 14 14 14 14 14 14 14 14 14 14 14 13 13 13 13 13 13 13 13 13 12 12 12 12 12 12 12 12 11 11 11 11 11
12 12 13 13 13 13 13 13 13 13 14 14 14 13 13 13 13 13 13 13 13 13 13 13 13 12 12 12 12 12 12 12 12 12 12 12 12 12 11 11 11 11 10
11 11 12 12 13 13 13 13 13 13 13 13 13 13 13 13 13 13 13 13 13 13 12 12 12 12 12 12 12 12 12 12 12 12 12 12 12 11 11 11 11 10 10
11 11 12 12 12 12 12 13 12 13 12 12 13 13 13 13 13 12 12 12 12 12 12 12 12 12 12 12 12 12 12 12 12 11 11 12 11 11 11 11 10 10 10
11 11 11 11 12 12 12 12 12 12 12 12 12 12 12 12 12 12 12 12 12 12 12 12 11 11 11 11 11 11 11 11 11 11 11 11 11 11 11 11 10 10 10
10 10 10 11 11 11 11 11 11 11 11 12 12 12 12 12 12 12 11 11 11 11 11 11 11 11 11 11 11 11 11 11 11 11 11 11 11 11 11 11 10 10 10
10 10 10 10 10 11 11 11 11 11 11 11 11 11 11 12 12 11 11 11 11 11 11 11 11 11 10 10 11 11 11 11 11 11 10 10 10 10 10 10 10 10 10
10 10 10 10 10 10 10 11 11 11 10 11 11 11 11 11 11 11 11 11 11 11 11 10 10 10 10 10 10 10 10 11 11 11 10 10 10 10 10 10 10 10 10
9 9 9 9 10 10 10 10 10 10 10 10 10 10 11 11 11 11 11 11 10 10 10 10 10 10 10 10 10 10 10 10 10 10 10 10 10 10 10 10 10 10 10
9 9 9 9 9 9 9 9 9 9 10 10 10 10 10 10 11 11 10 10 10 10 10 10 10 10 10 10 9 9 9 10 10 10 10 10 10 10 10 10 10 10 10
8 9 9 9 9 9 9 9 9 9 9 9 10 10 10 10 10 10 10 10 10 10 10 10 10 9 9 9 9 9 9 9 10 10 10 10 10 10 10 10 10 10 10
8 8 8 9 9 9 9 9 9 9 9 9 9 9 10 10 10 10 10 10 10 9 9 9 9 9 9 9 9 9 10 10 10 10 10 10 10 10 10 10 10 10 10
8 8 8 8 8 9 8 8 8 8 8 9 9 9 9 9 9 10 10 9 9 9 9 9 9 9 9 9 9 9 10 10 10 10 9 9 10 10 10 10 10 10 10
8 8 8 8 8 8 8 8 8 8 8 8 8 9 9 9 9 9 9 9 9 9 9 9 9 9 9 9 9 9 9 9 10 9 9 9 9 9 9 10 10 9 9
7 7 7 8 8 8 8 8 8 8 8 8 8 8 8 8 9 9 9 9 9 9 9 9 9 9 9 9 9 9 9 9 9 9 9 9 9 9 9 9 9 9 9
Wind_Speed
4 3 1 1 4 5 7 9 10 11 12 13 13 13 13 13 13 14 14 14 13 14 14 14 14 14 14 13 13 12 12 12 12 12 12 11 11 11 11 10 10 11 13
4 2 2 1 3 5 6 7 8 10 11 13 13 13 13 13 13 13 14 14 14 14 14 14 14 14 13 13 12 12 12 12 12 11 11 11 11 11 11 10 9 11 12
4 2 2 1 2 4 5 6 6 8 10 12 12 13 13 13 13 13 13 13 13 14 14 14 14 14 13 13 13 13 12 12 12 10 9 9 11 11 11 11 11 11 11
4 2 1 1 1 3 4 5 6 7 8 10 11 12 12 13 13 13 13 12 12 13 13 13 14 14 14 14 13 13 12 12 11 9 7 8 9 11 11 11 10 10 10
4 3 2 1 0 2 4 4 5 6 7 9 10 11 12 12 13 13 13 12 12 12 12 13 14 14 14 14 13 13 12 12 10 8 7 8 8 10 10 10 9 10 10
5 3 2 1 1 2 4 5 5 5 6 7 9 11 11 12 12 12 12 12 12 12 12 13 13 14 14 14 14 13 12 12 10 8 7 7 8 10 10 9 9 9 9
5 4 2 1 2 2 3 5 5 6 6 6 8 10 11 12 12 12 12 12 12 12 12 13 12 13 14 14 14 13 13 11 9 8 7 7 8 10 9 9 8 8 8
5 5 3 2 3 3 2 4 5 6 6 6 7 9 10 11 11 12 12 12 12 13 13 13 13 13 14 14 14 13 13 12 9 8 8 7 9 9 8 8 8 8 7
6 5 4 4 4 5 4 4 5 6 6 6 7 9 10 10 11 12 12 12 12 13 13 14 13 13 13 14 14 13 12 10 9 8 7 7 8 9 8 8 8 7 7
7 6 5 5 5 5 6 5 5 6 7 7 7 8 9 11 12 12 12 12 12 13 13 14 14 13 13 13 13 13 12 11 9 8 7 7 8 8 8 8 8 7 7
8 7 6 6 5 6 6 6 6 7 8 8 8 7 9 10 11 11 12 12 12 13 13 14 14 13 12 12 13 13 13 9 9 7 7 7 8 9 9 9 8 7 7
10 9 6 6 6 6 6 6 6 6 7 8 7 8 8 9 9 9 10 12 12 13 14 14 14 13 12 11 12 13 10 10 8 7 7 7 9 10 9 9 9 8 7
10 9 9 7 6 6 5 5 4 5 5 7 8 8 7 7 7 8 8 10 11 12 12 12 12 11 11 9 9 10 10 9 7 7 7 9 10 10 10 9 9 9 8
11 11 10 8 7 7 6 6 6 5 4 5 7 8 7 5 6 7 7 8 9 9 9 9 8 10 10 11 10 9 10 8 7 7 7 9 10 11 11 10 10 10 9
12 11 10 9 8 7 6 6 6 6 6 6 6 8 8 6 7 7 7 8 9 9 9 9 9 9 9 10 10 9 10 10 10 8 7 10 10 10 11 12 11 11 10
12 11 10 9 9 8 7 6 6 6 6 6 6 8 9 8 8 8 8 8 9 9 9 9 10 9 8 8 10 10 10 10 10 10 8 10 11 11 12 12 12 12 12
11 11 10 9 9 9 8 7 6 6 6 6 7 9 10 9 9 9 8 8 8 9 10 9 10 9 8 9 10 11 9 10 9 11 10 9 10 11 12 12 13 13 13
10 10 10 8 9 9 8 7 6 6 6 6 7 8 10 10 11 9 8 9 9 8 8 8 8 8 8 9 9 9 8 8 10 10 10 10 9 9 11 12 12 12 13
10 10 9 9 9 8 8 7 7 6 6 6 6 7 9 11 11 9 8 8 9 8 8 9 9 9 9 9 8 8 8 8 9 9 10 11 11 10 10 10 11 12 12
9 9 9 9 8 7 6 6 5 7 7 6 6 8 9 10 11 10 8 9 10 9 9 10 10 9 8 8 8 8 8 8 8 9 10 10 10 11 12 11 11 11 12
9 9 9 9 8 6 5 5 5 7 7 6 7 10 10 10 11 10 8 9 10 10 11 12 10 11 9 8 6 6 6 8 9 9 9 9 10 11 12 12 11 10 10
9 9 8 9 8 8 6 5 6 7 6 6 7 9 10 10 11 10 11 10 10 10 11 12 11 9 8 8 7 5 5 6 8 10 10 10 10 9 10 11 12 11 10
9 9 8 8 8 8 7 5 6 5 5 6 7 8 9 10 11 11 12 11 11 11 11 13 13 12 10 10 9 7 5 6 5 7 10 9 10 9 9 10 11 11 12
9 8 8 8 8 8 7 7 8 7 8 9 8 8 9 10 11 12 12 12 12 12 13 13 13 11 12 11 10 9 7 4 4 4 7 9 10 10 11 9 10 10 11
9 8 8 8 8 8 7 7 8 8 9 7 8 9 9 10 11 12 12 12 12 12 13 14 13 13 12 12 10 9 8 6 7 5 6 7 8 9 9 10 9 9 10
9 8 8 8 8 8 8 8 9 9 9 9 9 9 8 8 9 12 12 12 12 12 13 14 14 15 14 14 12 11 9 7 7 7 7 8 8 7 9 9 9 8 8
Wind_Direction
350 344 70 188 158 155 158 165 167 167 167 164 162 161 160 160 160 162 160 157 154 153 149 147 145 139 137 136 134 130 127 122 117 116 114 112 112 111 109 107 110 101 96
345 350 115 178 155 155 157 162 171 172 169 167 167 165 164 163 163 162 162 160 160 158 154 151 148 143 139 138 136 133 128 123 122 119 119 117 114 115 113 106 99 99 101
2 18 122 127 156 159 159 163 166 171 171 170 170 167 168 167 166 164 164 164 164 163 159 154 151 146 143 141 138 134 131 128 128 127 137 131 124 119 115 111 105 104 104
5 17 102 102 159 167 163 169 169 169 174 174 173 172 171 172 172 167 165 164 165 166 163 158 155 151 148 145 142 138 136 135 134 146 144 128 128 122 121 116 110 110 108
9 16 63 61 159 185 179 175 177 176 178 181 179 177 175 176 175 173 171 166 165 163 162 161 160 157 155 151 147 145 143 143 144 158 135 130 127 127 126 121 115 115 111
357 360 26 359 290 215 192 184 179 179 182 188 186 184 183 183 180 176 175 171 168 165 162 160 163 163 160 156 153 151 150 152 162 154 145 141 137 134 134 130 125 121 116
340 336 329 320 273 249 210 194 186 183 184 191 191 190 190 190 187 180 178 176 173 169 167 166 163 164 164 160 158 157 158 162 170 158 155 150 141 140 140 137 135 133 126
323 315 294 273 265 241 219 198 189 183 182 191 196 197 196 193 191 187 184 179 177 175 174 171 169 166 167 165 162 162 162 169 173 166 161 154 145 150 151 147 144 142 135
310 306 292 267 254 233 215 201 196 188 189 193 200 204 201 196 194 190 185 184 182 179 177 173 173 172 168 169 167 164 164 176 180 171 168 161 155 164 164 160 155 150 146
298 297 293 276 264 245 225 204 202 199 196 198 203 204 202 200 196 191 189 186 187 183 178 177 177 175 174 171 171 168 167 179 188 179 179 165 165 177 175 169 164 162 160
292 289 288 282 271 258 240 217 205 201 198 197 200 197 199 203 201 195 196 189 189 186 183 182 182 178 174 175 173 171 175 189 190 189 186 165 182 187 183 177 174 177 175
287 286 281 281 277 271 252 227 214 209 206 206 208 205 209 210 207 203 190 189 189 186 186 186 184 182 182 181 178 179 189 193 192 193 182 171 192 195 190 186 185 188 190
284 281 280 276 275 266 261 236 224 218 214 216 212 212 214 212 206 200 189 186 188 188 189 186 189 192 191 187 187 193 194 192 196 194 184 182 200 201 196 194 195 196 199
286 279 278 274 271 263 260 243 224 220 220 223 217 214 213 213 211 205 199 195 193 193 194 193 197 198 198 194 195 198 196 198 199 197 186 188 205 206 205 203 203 203 203
277 280 275 272 265 261 255 252 231 219 218 220 220 217 215 218 216 209 207 201 200 198 198 199 199 199 203 201 200 202 203 203 202 200 194 194 208 214 214 212 210 211 212
272 275 278 272 264 255 251 248 240 222 218 219 220 222 218 216 217 212 211 209 206 204 202 202 201 200 202 202 203 206 208 207 209 206 205 199 207 217 222 219 216 219 222
269 271 273 272 263 252 248 247 244 224 219 222 223 223 221 218 215 213 211 212 210 207 205 205 204 204 206 205 208 210 212 214 213 213 210 211 209 212 223 226 223 225 227
268 268 268 268 265 252 247 248 245 229 220 224 226 223 223 220 216 214 211 213 210 207 205 205 204 205 207 209 210 211 213 216 216 218 215 215 216 217 218 225 230 231 234
269 265 263 264 262 255 249 248 247 238 225 227 231 226 225 220 216 216 214 212 207 209 209 207 209 209 208 210 214 215 216 217 218 217 220 221 221 223 225 219 225 232 238
273 263 256 258 260 258 248 245 253 245 231 228 233 231 228 222 216 216 215 212 208 209 210 208 210 212 213 211 214 219 222 220 220 219 222 223 224 224 227 227 226 228 230
277 268 257 254 258 253 247 238 246 243 236 232 237 233 228 225 217 217 214 211 209 213 214 211 211 211 212 207 210 220 231 228 225 221 220 222 223 222 225 227 228 230 228
274 272 268 258 257 251 249 243 240 240 238 235 242 236 229 227 220 217 214 212 212 214 216 214 211 211 211 203 205 207 221 225 225 221 219 220 224 221 224 226 228 228 230
274 269 266 263 262 255 249 245 242 240 238 241 241 238 231 228 226 221 220 216 214 215 217 215 210 211 209 208 210 208 211 221 210 206 214 215 217 217 219 222 226 228 228
278 272 268 263 262 259 250 243 239 239 240 244 243 239 232 231 228 222 222 221 218 217 218 218 215 213 210 210 211 223 234 232 217 204 207 212 216 219 220 219 222 226 225
280 278 272 267 265 259 250 246 242 243 244 244 243 241 233 231 228 225 222 222 220 220 220 218 216 214 212 214 213 212 223 226 230 228 220 213 219 222 222 221 220 220 222
287 283 276 270 270 264 251 247 244 246 246 246 243 240 235 232 227 226 222 223 222 221 220 218 216 216 215 216 216 215 214 213 212 221 225 216 222 225 221 221 220 217 217
Height
1492 1491 1491 1492 1494 1495 1496 1497 1499 1500 1501 1502 1503 1504 1505 1506 1507 1508 1508 1509 1510 1511 1511 1512 1512 1513 1513 1513 1513 1513 1514 1514 1514 1514 1514 1514 1514 1514 1514 1514 1515 1515 1514
1492 1491 1491 1492 1494 1495 1496 1497 1498 1500 1501 1502 1503 1504 1505 1505 1506 1507 1508 1509 1510 1511 1511 1512 1512 1513 1513 1513 1513 1514 1514 1514 1514 1514 1514 1515 1515 1515 1515 1515 1516 1516 1515
1491 1491 1491 1492 1493 1494 1496 1497 1498 1499 1500 1501 1502 1503 1504 1505 1506 1507 1508 1508 1509 1510 1511 1511 1512 1512 1513 1513 1513 1514 1514 1514 1514 1515 1515 1516 1516 1516 1516 1516 1516 1516 1516
1491 1491 1491 1492 1493 1494 1495 1496 1497 1498 1499 1500 1501 1502 1503 1504 1505 1506 1507 1508 1509 1509 1510 1511 1511 1512 1512 1513 1513 1514 1514 1514 1515 1515 1517 1517 1517 1516 1517 1517 1517 1517 1517
1490 1490 1490 1491 1492 1493 1494 1495 1496 1497 1498 1499 1500 1501 1502 1503 1504 1505 1506 1507 1508 1508 1509 1510 1511 1511 1512 1512 1513 1513 1514 1514 1515 1516 1517 1517 1517 1517 1517 1517 1517 1517 1517
1490 1489 1489 1490 1491 1492 1493 1494 1495 1496 1497 1498 1499 1500 1501 1502 1503 1504 1505 1505 1506 1507 1508 1509 1510 1510 1511 1512 1512 1513 1514 1514 1515 1516 1517 1517 1517 1517 1517 1517 1517 1517 1517
1488 1488 1488 1489 1489 1490 1491 1492 1493 1494 1495 1496 1497 1498 1499 1500 1501 1502 1503 1504 1505 1506 1507 1508 1508 1509 1510 1511 1512 1513 1513 1514 1515 1516 1516 1517 1517 1516 1517 1517 1517 1517 1517
1487 1486 1487 1487 1488 1488 1489 1490 1491 1492 1493 1494 1495 1496 1497 1498 1499 1500 1501 1502 1503 1504 1505 1506 1507 1508 1509 1510 1511 1512 1513 1513 1515 1516 1516 1516 1516 1516 1516 1517 1517 1517 1517
1484 1484 1485 1485 1485 1486 1487 1487 1489 1490 1491 1492 1493 1493 1495 1496 1497 1498 1499 1500 1501 1502 1503 1504 1506 1507 1508 1508 1509 1510 1511 1512 1514 1515 1515 1515 1515 1515 1516 1516 1516 1517 1516
1481 1482 1482 1482 1482 1483 1483 1484 1485 1486 1488 1489 1490 1491 1492 1493 1494 1495 1496 1497 1498 1500 1501 1502 1504 1505 1506 1507 1508 1509 1510 1511 1513 1513 1514 1514 1514 1514 1515 1515 1516 1516 1516
1478 1478 1478 1479 1479 1479 1480 1481 1482 1483 1484 1486 1487 1488 1489 1490 1491 1492 1493 1494 1496 1497 1499 1500 1501 1503 1504 1505 1506 1507 1508 1510 1511 1512 1512 1512 1513 1513 1514 1514 1515 1515 1515
1474 1474 1475 1475 1475 1475 1476 1477 1478 1479 1480 1482 1483 1484 1486 1487 1488 1489 1490 1491 1493 1495 1496 1498 1499 1500 1502 1503 1504 1505 1506 1507 1509 1509 1510 1510 1511 1512 1512 1513 1513 1514 1514
1471 1470 1470 1470 1471 1471 1471 1472 1473 1474 1476 1477 1479 1480 1482 1483 1484 1485 1486 1488 1490 1491 1493 1494 1496 1497 1499 1500 1501 1503 1504 1505 1506 1507 1507 1508 1509 1510 1511 1511 1512 1512 1513
1466 1466 1465 1466 1466 1466 1467 1467 1468 1469 1470 1472 1474 1476 1477 1478 1480 1481 1482 1484 1486 1487 1489 1491 1492 1494 1496 1497 1498 1500 1501 1502 1503 1504 1505 1505 1507 1508 1509 1509 1510 1510 1511
1462 1461 1461 1461 1461 1461 1462 1462 1463 1463 1465 1467 1469 1471 1472 1474 1475 1476 1478 1480 1481 1483 1485 1487 1488 1490 1492 1494 1495 1496 1498 1499 1500 1501 1501 1503 1504 1505 1506 1507 1508 1508 1509
1457 1456 1456 1455 1456 1456 1457 1457 1457 1458 1459 1461 1464 1466 1468 1469 1471 1472 1473 1475 1477 1479 1481 1483 1484 1486 1488 1490 1491 1493 1494 1496 1497 1497 1499 1500 1501 1502 1503 1504 1505 1506 1507
1452 1451 1451 1450 1450 1451 1452 1452 1452 1453 1454 1456 1458 1461 1463 1464 1466 1467 1467 1470 1472 1474 1476 1478 1481 1482 1484 1486 1487 1489 1491 1492 1493 1494 1495 1497 1498 1499 1500 1501 1502 1503 1504
1446 1446 1445 1445 1445 1446 1446 1447 1447 1448 1448 1450 1453 1455 1457 1459 1461 1462 1462 1465 1468 1470 1472 1474 1476 1477 1479 1481 1483 1485 1486 1488 1489 1491 1492 1493 1494 1495 1497 1498 1499 1499 1500
1441 1440 1440 1439 1440 1440 1441 1442 1442 1442 1443 1445 1448 1450 1452 1454 1455 1457 1458 1460 1463 1465 1467 1469 1471 1473 1475 1477 1479 1481 1482 1483 1485 1486 1488 1489 1490 1491 1493 1494 1495 1496 1496
1436 1435 1435 1435 1435 1435 1436 1437 1438 1438 1439 1441 1443 1444 1446 1448 1450 1452 1452 1455 1458 1460 1462 1464 1466 1469 1471 1473 1475 1476 1478 1479 1480 1481 1483 1485 1486 1487 1488 1490 1491 1492 1492
1431 1430 1430 1430 1430 1430 1431 1431 1432 1433 1434 1436 1437 1439 1440 1442 1444 1446 1447 1450 1452 1454 1456 1459 1461 1464 1466 1468 1471 1472 1473 1474 1475 1476 1478 1480 1481 1482 1484 1485 1486 1487 1488
1426 1425 1424 1425 1426 1426 1426 1427 1428 1428 1429 1430 1431 1433 1435 1436 1438 1440 1441 1444 1447 1449 1451 1454 1456 1458 1460 1462 1465 1467 1469 1471 1469 1470 1472 1474 1476 1477 1479 1481 1482 1482 1483
1422 1421 1420 1421 1421 1421 1422 1422 1423 1423 1423 1425 1425 1427 1429 1431 1433 1434 1436 1438 1440 1443 1445 1448 1450 1452 1454 1457 1459 1462 1463 1464 1465 1466 1466 1468 1471 1472 1474 1475 1477 1478 1479
1417 1416 1416 1416 1416 1416 1417 1417 1418 1416 1417 1418 1420 1421 1423 1425 1427 1428 1430 1432 1434 1437 1439 1442 1444 1446 1448 1450 1453 1455 1457 1458 1460 1461 1462 1463 1465 1467 1469 1470 1471 1473 1474
1413 1412 1411 1411 1411 1411 1411 1412 1412 1412 1413 1414 1415 1415 1417 1419 1420 1422 1424 1426 1428 1430 1432 1435 1438 1440 1442 1444 1446 1449 1451 1452 1454 1455 1456 1458 1460 1462 1463 1465 1466 1467 1468
1409 1408 1407 1406 1406 1406 1406 1407 1407 1407 1407 1407 1408 1409 1410 1412 1413 1415 1417 1419 1421 1423 1426 1428 1431 1433 1435 1438 1440 1443 1445 1446 1447 1449 1451 1452 1454 1456 1458 1459 1460 1461 1463